This is the latest recevied weather packets stored in our database for station/object vk4zu-13. If no packets are shown the sender has not sent any weather packets the latest 10 day(s).
| Time | Temp. | Humidity | Pressure | Rain* | Wind** | Luminosity | Snow |
|---|---|---|---|---|---|---|---|
| 1777603894 | 26.11° C | 59% | 1023.3 hPa | 0 mm | - | 738 W/m² | - |
| 1777603834 | 26.67° C | 64% | 1023.3 hPa | 0 mm | - | 728 W/m² | - |
| 1777603770 | 26.11° C | 61% | 1023.3 hPa | 0 mm | - | 737 W/m² | - |
| 1777603713 | 26.11° C | 64% | 1023.3 hPa | 0 mm | - | 752 W/m² | - |
| 1777603655 | 26.11° C | 61% | 1023.4 hPa | 0 mm | - | 330 W/m² | - |
| 1777603583 | 26.11° C | 61% | 1023.2 hPa | 0 mm | - | 411 W/m² | - |
| 1777603512 | 26.67° C | 58% | 1023.4 hPa | 0 mm | - | 851 W/m² | - |
| 1777603442 | 26.67° C | 62% | 1023.3 hPa | 0 mm | - | 851 W/m² | - |
| 1777603376 | 26.67° C | 59% | 1023.3 hPa | 0 mm | - | 816 W/m² | - |
| 1777603304 | 26.67° C | 61% | 1023.4 hPa | 0 mm | - | 816 W/m² | - |
| 1777603233 | 26.67° C | 59% | 1023.3 hPa | 0 mm | - | 816 W/m² | - |
| 1777603163 | 26.67° C | 57% | 1023.4 hPa | 0 mm | - | 766 W/m² | - |
| 1777603094 | 26.67° C | 57% | 1023.4 hPa | 0 mm | - | 761 W/m² | - |
| 1777603030 | 27.22° C | 62% | 1023.4 hPa | 0 mm | - | 768 W/m² | - |
| 1777602970 | 27.22° C | 62% | 1023.6 hPa | 0 mm | - | 682 W/m² | - |
| 1777602901 | 26.67° C | 59% | 1023.5 hPa | 0 mm | - | 738 W/m² | - |
| 1777602832 | 26.67° C | 59% | 1023.5 hPa | 0 mm | - | 698 W/m² | - |
| 1777602764 | 26.11° C | 61% | 1023.5 hPa | 0 mm | - | 731 W/m² | - |
| 1777602692 | 26.11° C | 62% | 1023.5 hPa | 0 mm | - | 731 W/m² | - |
| 1777602621 | 26.11° C | 60% | 1023.5 hPa | 0 mm | - | 733 W/m² | - |
| 1777602550 | 25.56° C | 61% | 1023.5 hPa | 0 mm | - | 733 W/m² | - |
| 1777602511 | 25.56° C | 60% | 1023.6 hPa | 0 mm | - | 756 W/m² | - |
| 1777602413 | 25.56° C | 60% | 1023.5 hPa | 0 mm | - | 756 W/m² | - |
| 1777602340 | 26.11° C | 60% | 1023.5 hPa | 0 mm | - | 756 W/m² | - |
| 1777602271 | 26.11° C | 61% | 1023.7 hPa | 0 mm | - | 749 W/m² | - |
* Rain latest hour (hover to see other rain measurements)
** Current wind speed in m/s (hover to see current wind gust speed)